Flag for India Weather past 2 weeks in Jaipur, Rajasthan, India

Now
97 °F

Duststorm.


Feels Like: 94 °F
Forecast: 88 / 107 °F
Wind: 5 mph from North

Location: Jaipur / Sanganer

Current Time: May 30, 2015 at 12:18:30 AM

Latest Report: May 29, 2015 at 11:00 PM


Visibility: 2 mi

Pressure: 29.71 "Hg

Humidity: 22%

Dew point: 52 °F

Location of JaipurLocation

Historic Weather in Jaipur — Graph

°F

Jaipur temperature yesterday

Maximum temperature yesterday: 108 °F (at 3:00 PM)
Minimum temperature yesterday: 90 °F (at 2:30 AM)
Average temperature yesterday: 100 °F

Past Weeks' High & Low Weather Summary

 TemperatureHumidityPressure
High111 °F (May 18, 3:00 PM)54% (May 15, 5:00 AM)29.89 "Hg (May 15, 5:00 AM)
Low77 °F (May 15, 5:00 AM)2% (May 27, 3:00 PM)29.53 "Hg (May 23, 3:00 PM)
Average96 °F24%29.67 "Hg
* Reported May 14 11:00 PM — May 29 11:00 PM, Jaipur, Weather by CustomWeather, © 2015

Note: Actual official high and low records may vary slightly from our data, if they occured in-between our weather recording intervals... More about our weather records

Advertising

Jaipur weather history for previous 24 hours

 ConditionsComfort  
Time TempWeatherWind HumidityBarometerVisibility
11:00 PM
Fri, May 29
97 °FDuststorm.5 mph22%29.71 "Hg2 mi
10:00 PM99 °FDuststorm.6 mph19%29.71 "Hg2 mi
9:00 PM100 °FDuststorm.8 mph18%29.68 "Hg2 mi
8:00 PM102 °FDuststorm.8 mph15%29.68 "Hg2 mi
7:00 PM104 °FDuststorm.7 mph12%29.65 "Hg2 mi
6:00 PM106 °FDuststorm.10 mph10%29.62 "Hg2 mi
5:30 PM108 °FDuststorm.9 mph10%29.62 "Hg2 mi
5:00 PM108 °FDuststorm.9 mph9%29.62 "Hg2 mi
4:30 PM108 °FDuststorm.10 mph9%29.62 "Hg2 mi
4:00 PM108 °FDuststorm.15 mph10%29.65 "Hg2 mi
3:00 PM108 °FDuststorm.9 mph13%29.65 "Hg2 mi
2:00 PM106 °FPassing clouds.10 mph14%29.68 "Hg2 mi
1:00 PM104 °FPassing clouds.9 mph17%29.71 "Hg2 mi
12:30 PM102 °FPassing clouds.8 mph18%29.71 "Hg2 mi
12:00 PM100 °FPassing clouds.3 mph21%29.71 "Hg2 mi
11:00 AM102 °FPassing clouds.3 mph20%29.74 "Hg2 mi
10:00 AM99 °FHaze.9 mph21%29.74 "Hg2 mi
9:00 AM95 °FPassing clouds.9 mph25%29.74 "Hg2 mi
8:00 AM91 °FPassing clouds.12 mph28%29.74 "Hg2 mi
7:00 AM93 °FHaze.5 mph28%29.71 "Hg2 mi
6:00 AM91 °FHaze.5 mph30%29.68 "Hg2 mi
5:00 AM90 °FHaze.No wind33%29.65 "Hg2 mi
2:30 AM90 °FHaze.No wind31%29.65 "Hg2 mi
1:00 AM91 °FHaze.2 mph30%29.65 "Hg2 mi
12:00 AM95 °FHaze.No wind25%29.65 "Hg2 mi
Weather by CustomWeather, © 2015

See weather overviewHow to use our weather pages